Weather History for Sedona, AZ

Change the Weather History Date:

Tuesday, March 5, 2013

  Actual Average Record
Temperature  
Mean Temperature 56 °F -  
Max Temperature 68 °F 60 °F 69 °F (2012)
Min Temperature 44 °F 33 °F 42 °F (2011)
Degree Days  
Heating Degree Days 9    
Growing Degree Days 6 (Base 50)    
Moisture  
Dew Point 28 °F    
Average Humidity 38    
Maximum Humidity 57    
Minimum Humidity 19    
Precipitation  
Precipitation 0.00 in - - ()
Sea Level Pressure  
Sea Level Pressure 30.15 in    
Wind  
Wind Speed 8 mph (ESE)    
Max Wind Speed 16 mph    
Max Gust Speed 20 mph    
Visibility 10 miles    
Events      
Averages and records for this station are not official NWS values.
T = Trace of Precipitation, MM = Missing Value Source: NWS Daily Summary

Daily Weather History Graph

Daily Weather History Graph

Search for Another Location

Airport:

Trip Planner

Search our weather history database for the weather conditions in past years. The results will help you decide how hot, cold, wet, or windy it might be!

Date:

Astronomy

Mar. 05, 2013 Rise Set
Actual Time 6:50 AM MST 6:26 PM MST
Civil Twilight 6:25 AM MST 6:52 PM MST
Nautical Twilight 5:56 AM MST 7:21 PM MST
Astronomical Twilight 5:27 AM MST 7:50 PM MST
Moon 1:56 AM MST (3/5) 12:19 PM MST (3/5)
Length of Visible Light 12h 26m
Length of Day
11h 35m
Last Quarter, 40% of the Moon is Illuminated
Mar 5
Last Quarter
Mar 11
New
Mar 19
First Quarter
Mar 27
Full
Apr 2
Last Quarter

Hourly Weather History & Observations

Time (MST) Temp. Windchill Dew Point Humidity Pressure Visibility Wind Dir Wind Speed Gust Speed Precip Events Conditions
12:15 AM 48.2 °F - 28.4 °F 46% 30.16 in 10.0 mi NE 5.8 mph - N/A   Clear
12:35 AM 46.4 °F 41.9 °F 28.4 °F 50% 30.16 in 10.0 mi NE 9.2 mph - N/A   Clear
12:55 AM 48.2 °F - 28.4 °F 46% 30.17 in 10.0 mi NE 8.1 mph - N/A   Clear
1:15 AM 46.4 °F 41.9 °F 30.2 °F 53% 30.17 in 10.0 mi NE 9.2 mph - N/A   Clear
1:35 AM 46.4 °F 41.9 °F 30.2 °F 53% 30.17 in 10.0 mi NNE 9.2 mph - N/A   Clear
1:55 AM 46.4 °F 41.5 °F 28.4 °F 50% 30.18 in 10.0 mi NE 10.4 mph - N/A   Clear
2:15 AM 46.4 °F 41.5 °F 30.2 °F 53% 30.17 in 10.0 mi NNE 10.4 mph - N/A   Clear
2:35 AM 44.6 °F 38.4 °F 30.2 °F 57% 30.17 in 10.0 mi NNE 12.7 mph - N/A   Clear
2:55 AM 46.4 °F 41.5 °F 30.2 °F 53% 30.17 in 10.0 mi NNE 10.4 mph - N/A   Clear
3:35 AM 46.4 °F 40.1 °F 30.2 °F 53% 30.16 in 10.0 mi NE 15.0 mph - N/A   Clear
3:55 AM 46.4 °F 40.4 °F 30.2 °F 53% 30.16 in 10.0 mi NE 13.8 mph - N/A   Clear
4:15 AM 44.6 °F 38.8 °F 30.2 °F 57% 30.16 in 10.0 mi NE 11.5 mph - N/A   Clear
4:35 AM 46.4 °F 40.1 °F 30.2 °F 53% 30.16 in 10.0 mi NE 15.0 mph - N/A   Clear
4:55 AM 44.6 °F 37.4 °F 30.2 °F 57% 30.16 in 10.0 mi NE 16.1 mph - N/A   Clear
5:15 AM 44.6 °F 38.1 °F 30.2 °F 57% 30.17 in 10.0 mi NE 13.8 mph - N/A   Clear
5:55 AM 46.4 °F 40.4 °F 28.4 °F 50% 30.18 in 10.0 mi NE 13.8 mph - N/A   Clear
6:15 AM 44.6 °F 37.8 °F 28.4 °F 53% 30.18 in 10.0 mi NE 15.0 mph - N/A   Clear
6:35 AM 46.4 °F 40.4 °F 28.4 °F 50% 30.18 in 10.0 mi ENE 13.8 mph - N/A   Clear
6:55 AM 46.4 °F 40.7 °F 26.6 °F 46% 30.18 in 10.0 mi NE 12.7 mph 19.6 mph N/A   Clear
7:15 AM 46.4 °F 41.1 °F 26.6 °F 46% 30.19 in 10.0 mi NE 11.5 mph - N/A   Clear
7:35 AM 48.2 °F - 24.8 °F 40% 30.19 in 10.0 mi ENE 8.1 mph - N/A   Clear
7:55 AM 50.0 °F - 26.6 °F 40% 30.20 in 10.0 mi ENE 6.9 mph - N/A   Clear
8:15 AM 51.8 °F - 26.6 °F 38% 30.21 in 10.0 mi East 3.5 mph - N/A   Clear
8:35 AM 53.6 °F - 28.4 °F 38% 30.22 in 10.0 mi Calm Calm - N/A   Clear
8:55 AM 51.8 °F - 30.2 °F 44% 30.23 in 10.0 mi Calm Calm - N/A   Clear
9:15 AM 51.8 °F - 28.4 °F 41% 30.22 in 10.0 mi Calm Calm - N/A   Clear
9:35 AM 53.6 °F - 28.4 °F 38% 30.22 in 10.0 mi Calm Calm - N/A   Clear
9:55 AM 55.4 °F - 30.2 °F 38% 30.22 in 10.0 mi SSE 3.5 mph - N/A   Clear
10:15 AM 57.2 °F - 30.2 °F 36% 30.21 in 10.0 mi South 3.5 mph - N/A   Clear
10:35 AM 59.0 °F - 30.2 °F 34% 30.21 in 10.0 mi SSW 4.6 mph - N/A   Clear
10:55 AM 60.8 °F - 28.4 °F 29% 30.21 in 10.0 mi SSW 4.6 mph - N/A   Clear
11:15 AM 60.8 °F - 26.6 °F 27% 30.20 in 10.0 mi SSW 3.5 mph - N/A   Clear
11:35 AM 62.6 °F - 28.4 °F 27% 30.20 in 10.0 mi South 5.8 mph - N/A   Clear
11:55 AM 62.6 °F - 28.4 °F 27% 30.19 in 10.0 mi South 3.5 mph - N/A   Clear
12:15 PM 62.6 °F - 26.6 °F 26% 30.19 in 10.0 mi WSW 4.6 mph - N/A   Clear
12:35 PM 62.6 °F - 30.2 °F 30% 30.18 in 10.0 mi WSW 5.8 mph - N/A   Clear
12:55 PM 62.6 °F - 28.4 °F 27% 30.17 in 10.0 mi Calm Calm - N/A   Clear
1:15 PM 62.6 °F - 28.4 °F 27% 30.16 in 10.0 mi West 6.9 mph - N/A   Clear
1:35 PM 62.6 °F - 28.4 °F 27% 30.15 in 10.0 mi WSW 6.9 mph - N/A   Clear
1:55 PM 64.4 °F - 28.4 °F 26% 30.14 in 10.0 mi SW 3.5 mph - N/A   Clear
2:15 PM 64.4 °F - 26.6 °F 24% 30.12 in 10.0 mi SW 6.9 mph - N/A   Clear
2:35 PM 66.2 °F - 26.6 °F 23% 30.11 in 10.0 mi South 10.4 mph 17.3 mph N/A   Clear
2:55 PM 68.0 °F - 28.4 °F 23% 30.11 in 10.0 mi South 5.8 mph - N/A   Clear
3:15 PM 66.2 °F - 26.6 °F 23% 30.10 in 10.0 mi SSE 13.8 mph 18.4 mph N/A   Clear
3:35 PM 66.2 °F - 23.0 °F 19% 30.10 in 10.0 mi SW 11.5 mph - N/A   Clear
3:55 PM 64.4 °F - 24.8 °F 22% 30.10 in 10.0 mi SSW 9.2 mph 17.3 mph N/A   Clear
4:15 PM 64.4 °F - 23.0 °F 21% 30.10 in 10.0 mi SSW 9.2 mph 17.3 mph N/A   Clear
4:35 PM 64.4 °F - 24.8 °F 22% 30.10 in 10.0 mi South 11.5 mph - N/A   Clear
4:55 PM 62.6 °F - 23.0 °F 22% 30.10 in 10.0 mi South 10.4 mph - N/A   Clear
5:15 PM 62.6 °F - 23.0 °F 22% 30.10 in 10.0 mi South 12.7 mph 19.6 mph N/A   Clear
5:35 PM 62.6 °F - 24.8 °F 24% 30.10 in 10.0 mi SSE 8.1 mph - N/A   Clear
5:55 PM 60.8 °F - 26.6 °F 27% 30.10 in 10.0 mi SW 9.2 mph - N/A   Clear
6:15 PM 59.0 °F - 28.4 °F 31% 30.10 in 10.0 mi SW 9.2 mph - N/A   Clear
6:35 PM 57.2 °F - 28.4 °F 33% 30.10 in 10.0 mi West 5.8 mph - N/A   Clear
6:55 PM 57.2 °F - 28.4 °F 33% 30.10 in 10.0 mi West 4.6 mph - N/A   Clear
7:15 PM 55.4 °F - 28.4 °F 36% 30.10 in 10.0 mi Calm Calm - N/A   Clear
7:35 PM 55.4 °F - 28.4 °F 36% 30.10 in 10.0 mi Calm Calm - N/A   Clear
7:55 PM 57.2 °F - 28.4 °F 33% 30.10 in 10.0 mi Calm Calm - N/A   Clear
8:15 PM 55.4 °F - 28.4 °F 36% 30.10 in 10.0 mi East 3.5 mph - N/A   Clear
8:35 PM 55.4 °F - 28.4 °F 36% 30.10 in 10.0 mi East 4.6 mph - N/A   Clear
8:55 PM 55.4 °F - 28.4 °F 36% 30.10 in 10.0 mi Calm Calm - N/A   Clear
9:15 PM 53.6 °F - 28.4 °F 38% 30.10 in 10.0 mi NNE 3.5 mph - N/A   Clear
9:35 PM 55.4 °F - 28.4 °F 36% 30.10 in 10.0 mi Calm Calm - N/A   Clear
9:55 PM 55.4 °F - 28.4 °F 36% 30.10 in 10.0 mi ESE 4.6 mph - N/A   Clear
10:15 PM 53.6 °F - 28.4 °F 38% 30.10 in 10.0 mi SE 4.6 mph - N/A   Clear
10:35 PM 53.6 °F - 30.2 °F 41% 30.11 in 10.0 mi SE 4.6 mph - N/A   Clear
10:55 PM 51.8 °F - 30.2 °F 44% 30.10 in 10.0 mi SE 4.6 mph - N/A   Clear
11:15 PM 51.8 °F - 30.2 °F 44% 30.10 in 10.0 mi SE 3.5 mph - N/A   Clear
11:35 PM 53.6 °F - 30.2 °F 41% 30.10 in 10.0 mi SE 3.5 mph - N/A   Clear
11:55 PM 53.6 °F - 30.2 °F 41% 30.09 in 10.0 mi Calm Calm - N/A   Clear